This is the latest recevied weather packets stored in our database for station/object W2OBX. If no packets are shown the sender has not sent any weather packets the latest 10 day(s).
| Time | Temp. | Humidity | Pressure | Rain* | Wind** | Luminosity | Snow |
|---|---|---|---|---|---|---|---|
| 1777662503 | 20° C | 35% | 1013.5 hPa | 0 mm | - | 261 W/m² | - |
| 1777662199 | 20.56° C | 38% | 1013.6 hPa | 0 mm | - | 237 W/m² | - |
| 1777661894 | 20.56° C | 37% | 1013.6 hPa | 0 mm | - | 281 W/m² | - |
| 1777661591 | 21.11° C | 35% | 1013.7 hPa | 0 mm | - | 268 W/m² | - |
| 1777661287 | 20.56° C | 38% | 1013.6 hPa | 0 mm | - | 391 W/m² | - |
| 1777660983 | 21.11° C | 38% | 1013.8 hPa | 0 mm | - | 376 W/m² | - |
| 1777660678 | 21.11° C | 36% | 1013.8 hPa | 0 mm | - | 579 W/m² | - |
| 1777660376 | 21.11° C | 35% | 1013.9 hPa | 0 mm | - | 710 W/m² | - |
| 1777660072 | 21.67° C | 38% | 1013.8 hPa | 0 mm | - | 690 W/m² | - |
| 1777659769 | 21.67° C | 40% | 1014 hPa | 0 mm | - | 548 W/m² | - |
| 1777659465 | 20.56° C | 37% | 1013.9 hPa | 0 mm | - | 591 W/m² | - |
| 1777659163 | 20.56° C | 36% | 1013.9 hPa | 0 mm | - | 662 W/m² | - |
| 1777658861 | 20.56° C | 38% | 1014 hPa | 0 mm | - | 655 W/m² | - |
| 1777658556 | 20.56° C | 37% | 1014.1 hPa | 0 mm | - | 609 W/m² | - |
| 1777658253 | 21.11° C | 37% | 1013.9 hPa | 0 mm | - | 649 W/m² | - |
| 1777657951 | 21.11° C | 41% | 1014.1 hPa | 0 mm | - | 591 W/m² | - |
| 1777657647 | 21.67° C | 37% | 1014 hPa | 0 mm | - | 492 W/m² | - |
| 1777657344 | 21.11° C | 39% | 1014 hPa | 0 mm | - | 785 W/m² | - |
| 1777657042 | 21.11° C | 38% | 1014.2 hPa | 0 mm | - | 785 W/m² | - |
| 1777656739 | 20.56° C | 40% | 1014.2 hPa | 0 mm | - | 746 W/m² | - |
| 1777656434 | 20.56° C | 41% | 1014.2 hPa | 0 mm | - | 701 W/m² | - |
| 1777656130 | 20.56° C | 44% | 1014.1 hPa | 0 mm | - | 775 W/m² | - |
| 1777655826 | 20° C | 42% | 1014.4 hPa | 0 mm | - | 769 W/m² | - |
| 1777655524 | 20° C | 41% | 1014.3 hPa | 0 mm | - | 637 W/m² | - |
| 1777655220 | 19.44° C | 41% | 1014.4 hPa | 0 mm | - | 725 W/m² | - |
* Rain latest hour (hover to see other rain measurements)
** Current wind speed in m/s (hover to see current wind gust speed)